Bluenose II — CYJZ — position and weather

sailwx.info

Track history (hours):
 
Tides and Currents Weather Stations Pressure Air Temp Water Temp Dewpoint Dewpoint Depression Visibility Wind Speed Wind Dir Waves Ship Positions

Bluenose II (Canada)

Ship's website: http://www.schoonerbluenose2.ca/

Last reported at 2018-Sep-03 22:18 UTC. Time now 2018-Dec-12 04:52 UTC.
Position N 42°44' W 069°60'.
Warning: this ship's position is months out of date.

Length 55 m; draft 5 m.

Type: Sailing vessel. MMSI: 316245000.

Date/timePositionNaut miles runAvg speedWind from/ knotsBaromVisibWave heightAir tempDewpointWater temp
2018-Sep-03 22:18N 42°44' W 069°60'2 6.8
2018-Sep-03 22:03N 42°43' W 070°02'1 7.1
2018-Sep-03 21:59N 42°42' W 070°02'4 7.7
2018-Sep-03 21:30N 42°41' W 070°07'3 6.2
2018-Sep-03 21:03N 42°40' W 070°10'0 6.7
2018-Sep-03 21:00N 42°40' W 070°11'3 6.2
2018-Sep-03 20:30N 42°39' W 070°15'3 7.0
2018-Sep-03 20:03N 42°38' W 070°19'0 7.0
2018-Sep-03 20:00N 42°38' W 070°19'4 8.0
2018-Sep-03 19:30N 42°36' W 070°24'4 9.8
2018-Sep-03 19:03N 42°35' W 070°30'110.1
2018-Sep-03 19:00N 42°35' W 070°31'5 9.7
2018-Sep-03 18:30N 42°34' W 070°37'3 6.4
2018-Sep-03 18:03N 42°35' W 070°41'0 6.4
2018-Sep-03 18:00N 42°35' W 070°41'2 3.1
2018-Sep-03 17:29N 42°37' W 070°40'0 0.0
2018-Sep-03 16:59N 42°37' W 070°40'0 0.0
2018-Sep-03 16:29N 42°37' W 070°40'0 0.0
2018-Sep-03 15:29N 42°37' W 070°40'0 0.0
2018-Sep-03 14:59N 42°37' W 070°40'0 0.0
2018-Sep-03 14:29N 42°37' W 070°40'0 0.0
2018-Sep-03 13:53N 42°37' W 070°40'0 0.0
2018-Sep-03 13:29N 42°37' W 070°40'0 0.0
2018-Sep-03 13:02N 42°37' W 070°40'0 0.0
2018-Sep-03 12:59N 42°37' W 070°40'0 0.0
2018-Sep-03 12:29N 42°37' W 070°40'0 0.0
2018-Sep-03 11:59N 42°37' W 070°40'0 0.0
2018-Sep-03 11:29N 42°37' W 070°40'0 0.0
2018-Sep-03 11:02N 42°37' W 070°40'0 0.0
2018-Sep-03 10:59N 42°37' W 070°40'0 0.0
2018-Sep-03 10:29N 42°37' W 070°40'0 0.0
2018-Sep-03 09:59N 42°37' W 070°40'0 0.0
2018-Sep-03 09:29N 42°37' W 070°40'0 0.0
2018-Sep-03 09:02N 42°37' W 070°40'0 0.0
2018-Sep-03 08:59N 42°37' W 070°40'0 0.0
2018-Sep-03 08:29N 42°37' W 070°40'0 0.0
2018-Sep-03 07:59N 42°37' W 070°40'0 0.0
2018-Sep-03 07:29N 42°37' W 070°40'0 0.0
2018-Sep-03 07:02N 42°37' W 070°40'0 0.0
2018-Sep-03 06:53N 42°37' W 070°40'0 0.0
2018-Sep-03 06:29N 42°37' W 070°40'0 0.0
2018-Sep-03 06:02N 42°37' W 070°40'0 0.0
2018-Sep-03 05:59N 42°37' W 070°40'0 0.0
2018-Sep-03 05:29N 42°37' W 070°40'0 0.0
2018-Sep-03 05:02N 42°37' W 070°40'0 0.1
2018-Sep-03 04:59N 42°37' W 070°40'0 0.0
2018-Sep-03 04:29N 42°37' W 070°40'0 0.0
2018-Sep-03 04:02N 42°37' W 070°40'0 0.2
2018-Sep-03 03:59N 42°37' W 070°40'0 0.0
2018-Sep-03 03:29N 42°37' W 070°40'0 0.0
2018-Sep-03 03:02N 42°37' W 070°40'0 0.0
2018-Sep-03 02:59N 42°37' W 070°40'0 0.0
2018-Sep-03 02:29N 42°37' W 070°40'0 0.0
2018-Sep-03 02:02N 42°37' W 070°40'0 0.0
2018-Sep-03 01:56N 42°37' W 070°40'0 0.0
2018-Sep-03 01:29N 42°37' W 070°40'0 0.0
2018-Sep-03 01:02N 42°37' W 070°40'0 0.0
2018-Sep-03 00:56N 42°37' W 070°40'0 0.0
2018-Sep-03 00:29N 42°37' W 070°40'0 0.0
2018-Sep-03 00:02N 42°37' W 070°40'0 0.1
2018-Sep-02 23:59N 42°37' W 070°40'0 0.0
2018-Sep-02 23:29N 42°37' W 070°40'0 0.0
2018-Sep-02 23:02N 42°37' W 070°40'0 0.0
2018-Sep-02 22:53N 42°37' W 070°40'0 0.0
2018-Sep-02 22:29N 42°37' W 070°40'0 0.0
2018-Sep-02 22:02N 42°37' W 070°40'0 0.0
2018-Sep-02 21:59N 42°37' W 070°40'0 0.0
2018-Sep-02 21:26N 42°37' W 070°40'0 0.0
2018-Sep-02 20:57N 42°37' W 070°40'0 0.1
2018-Sep-02 20:30N 42°37' W 070°40'1 1.2
2018-Sep-02 20:03N 42°36' W 070°40'0 2.0
2018-Sep-02 20:00N 42°36' W 070°40'1 2.7
2018-Sep-02 19:30N 42°35' W 070°41'3 6.2
2018-Sep-02 19:03N 42°33' W 070°43'0 6.9
2018-Sep-02 19:00N 42°33' W 070°44'3 3.2
2018-Sep-02 18:03N 42°34' W 070°40'0 0.6
2018-Sep-02 17:30N 42°33' W 070°40'2 5.5
2018-Sep-02 17:03N 42°33' W 070°36'0 4.3
2018-Sep-02 17:00N 42°33' W 070°36'2 3.7
2018-Sep-02 16:30N 42°34' W 070°38'2 4.1
2018-Sep-02 16:03N 42°35' W 070°40'0 5.6
2018-Sep-02 16:00N 42°35' W 070°41'1 1.9
2018-Sep-02 15:30N 42°36' W 070°41'1 1.7
2018-Sep-02 15:03N 42°36' W 070°40'0 2.9
2018-Sep-02 15:00N 42°36' W 070°40'0 0.4
2018-Sep-02 14:29N 42°37' W 070°40'0 0.0
2018-Sep-02 13:59N 42°37' W 070°40'0 0.0
2018-Sep-02 13:29N 42°37' W 070°40'0 0.0
2018-Sep-02 13:02N 42°37' W 070°40'0 0.2
2018-Sep-02 12:59N 42°37' W 070°40'0 0.0
2018-Sep-02 12:29N 42°37' W 070°40'0 0.0
2018-Sep-02 12:02N 42°37' W 070°40'0 0.0
2018-Sep-02 11:59N 42°37' W 070°40'0 0.0
2018-Sep-02 11:26N 42°37' W 070°40'0 0.0
2018-Sep-02 11:02N 42°37' W 070°40'0 0.1
2018-Sep-02 10:59N 42°37' W 070°40'0 0.0
2018-Sep-02 10:29N 42°37' W 070°40'0 0.0
2018-Sep-02 10:02N 42°37' W 070°40'0 0.0
2018-Sep-02 09:59N 42°37' W 070°40'0 0.0
2018-Sep-02 09:23N 42°37' W 070°40'0 0.0
2018-Sep-02 09:02N 42°37' W 070°40'0 0.1
2018-Sep-02 08:59N 42°37' W 070°40'0 0.0
2018-Sep-02 08:26N 42°37' W 070°40'0 0.0
2018-Sep-02 07:56N 42°37' W 070°40'0 0.0
2018-Sep-02 07:29N 42°37' W 070°40'0 0.0
2018-Sep-02 07:02N 42°37' W 070°40'0 0.0
2018-Sep-02 06:56N 42°37' W 070°40'0 0.0
2018-Sep-02 06:29N 42°37' W 070°40'0 0.0
2018-Sep-02 06:02N 42°37' W 070°40'0 0.0
2018-Sep-02 05:59N 42°37' W 070°40'0 0.0
2018-Sep-02 05:29N 42°37' W 070°40'0 0.0
2018-Sep-02 05:02N 42°37' W 070°40'0 0.1
2018-Sep-02 04:59N 42°37' W 070°40'0 0.0
2018-Sep-02 04:26N 42°37' W 070°40'0 0.0
2018-Sep-02 04:02N 42°37' W 070°40'0 0.0
2018-Sep-02 03:56N 42°37' W 070°40'0 0.0
2018-Sep-02 03:29N 42°37' W 070°40'0 0.0
2018-Sep-02 03:02N 42°37' W 070°40'0 0.1
2018-Sep-02 02:59N 42°37' W 070°40'0 0.0
2018-Sep-02 02:29N 42°37' W 070°40'0 0.0
2018-Sep-02 01:56N 42°37' W 070°40'0 0.0
2018-Sep-02 01:29N 42°37' W 070°40'0 0.0
2018-Sep-02 01:02N 42°37' W 070°40'0 0.1
2018-Sep-02 00:59N 42°37' W 070°40'0 0.0
2018-Sep-02 00:29N 42°37' W 070°40'0 0.0
2018-Sep-02 00:02N 42°37' W 070°40'0 0.2
2018-Sep-01 23:59N 42°37' W 070°40'0 0.0
2018-Sep-01 23:29N 42°37' W 070°40'0 0.0
2018-Sep-01 23:02N 42°37' W 070°40'0 0.0
2018-Sep-01 22:59N 42°37' W 070°40'0 0.0
2018-Sep-01 22:29N 42°37' W 070°40'0 0.0
2018-Sep-01 22:02N 42°37' W 070°40'0 0.0
2018-Sep-01 21:59N 42°37' W 070°40'0 0.0
2018-Sep-01 21:29N 42°37' W 070°40'0 0.0
2018-Sep-01 21:02N 42°37' W 070°40'0 0.0
2018-Sep-01 20:59N 42°37' W 070°40'0 0.0
2018-Sep-01 20:29N 42°37' W 070°40'0 0.0
2018-Sep-01 20:02N 42°37' W 070°40'0 0.1
2018-Sep-01 19:56N 42°37' W 070°40'0 0.0
2018-Sep-01 19:26N 42°37' W 070°40'0 0.0
2018-Sep-01 19:02N 42°37' W 070°40'0 0.1
2018-Sep-01 18:59N 42°37' W 070°40'0 0.0
2018-Sep-01 18:26N 42°37' W 070°40'0 0.0
2018-Sep-01 18:02N 42°37' W 070°40'0 0.0
2018-Sep-01 17:59N 42°37' W 070°40'0 0.0
2018-Sep-01 17:29N 42°37' W 070°40'0 0.0
2018-Sep-01 16:53N 42°37' W 070°40'0 0.0
2018-Sep-01 16:26N 42°37' W 070°40'0 0.0
2018-Sep-01 16:02N 42°37' W 070°40'0 0.1
2018-Sep-01 15:59N 42°37' W 070°40'0 0.0
2018-Sep-01 15:29N 42°37' W 070°40'0 0.0
2018-Sep-01 15:02N 42°37' W 070°40'0 0.0
2018-Sep-01 14:59N 42°37' W 070°40'0 0.0
2018-Sep-01 14:26N 42°37' W 070°40'0 0.4
2018-Sep-01 13:57N 42°37' W 070°39'0 0.0
2018-Sep-01 13:30N 42°37' W 070°39'0 0.0
2018-Sep-01 13:00N 42°37' W 070°39'0 0.0
2018-Sep-01 12:30N 42°37' W 070°39'0 0.0
2018-Sep-01 12:00N 42°37' W 070°39'0 0.0
2018-Sep-01 11:30N 42°37' W 070°39'0 0.0
2018-Sep-01 11:03N 42°37' W 070°39'0 0.0
2018-Sep-01 11:00N 42°37' W 070°39'0 0.0
2018-Sep-01 10:30N 42°37' W 070°39'0 0.0
2018-Sep-01 10:00N 42°37' W 070°39'0 0.0
2018-Sep-01 09:30N 42°37' W 070°39'0 0.0
2018-Sep-01 09:00N 42°37' W 070°39'0 0.0
2018-Sep-01 08:30N 42°37' W 070°39'0 0.0
2018-Sep-01 08:03N 42°37' W 070°39'0 0.1
2018-Sep-01 08:00N 42°37' W 070°39'0 0.0
2018-Sep-01 07:30N 42°37' W 070°39'0 0.0
2018-Sep-01 07:03N 42°37' W 070°39'0 0.1
2018-Sep-01 06:57N 42°37' W 070°39'0 0.0
2018-Sep-01 06:30N 42°37' W 070°39'0 0.0
2018-Sep-01 06:03N 42°37' W 070°39'0 0.1
2018-Sep-01 05:57N 42°37' W 070°39'0 0.0
2018-Sep-01 05:30N 42°37' W 070°39'0 0.0
2018-Sep-01 05:03N 42°37' W 070°39'0 0.1
2018-Sep-01 05:00N 42°37' W 070°39'0 0.0
2018-Sep-01 04:30N 42°37' W 070°39'0 0.0
2018-Sep-01 04:03N 42°37' W 070°39'0 0.0
2018-Sep-01 04:00N 42°37' W 070°39'0 0.0
2018-Sep-01 03:27N 42°37' W 070°39'0 0.0
2018-Sep-01 03:03N 42°37' W 070°39'0 0.1
2018-Sep-01 02:57N 42°37' W 070°39'0 0.0
2018-Sep-01 02:30N 42°37' W 070°39'0 0.0
2018-Sep-01 02:00N 42°37' W 070°39'0 0.0
2018-Sep-01 01:30N 42°37' W 070°39'0 0.0
2018-Sep-01 01:03N 42°37' W 070°39'0 0.0
2018-Sep-01 01:00N 42°37' W 070°39'0 0.0
2018-Sep-01 00:30N 42°37' W 070°39'0 0.0
2018-Sep-01 00:00N 42°37' W 070°39'0 0.0
2018-Aug-31 23:30N 42°37' W 070°39'0 0.0
2018-Aug-31 23:00N 42°37' W 070°39'0 0.0
2018-Aug-31 22:30N 42°37' W 070°39'0 0.0
2018-Aug-31 22:03N 42°37' W 070°39'0 0.0
2018-Aug-31 21:57N 42°37' W 070°39'0 0.0
2018-Aug-31 21:27N 42°37' W 070°39'0 0.0
2018-Aug-31 21:03N 42°37' W 070°39'0 0.2
2018-Aug-31 21:00N 42°37' W 070°39'0 0.0
2018-Aug-31 20:30N 42°37' W 070°39'0 0.0
2018-Aug-31 20:03N 42°37' W 070°39'0 0.0
2018-Aug-31 19:59N 42°37' W 070°39'0 0.0
2018-Aug-31 19:30N 42°37' W 070°39'0 0.0
2018-Aug-31 19:03N 42°37' W 070°39'0 0.0
2018-Aug-31 19:00N 42°37' W 070°39'0 0.0
2018-Aug-31 18:30N 42°37' W 070°39'0 0.2
2018-Aug-31 18:03N 42°37' W 070°40'0 0.4
2018-Aug-31 18:00N 42°37' W 070°40'1 2.5
2018-Aug-31 17:30N 42°36' W 070°41'2 5.4
2018-Aug-31 17:03N 42°33' W 070°40'0 4.6
2018-Aug-31 17:00N 42°33' W 070°40'1 1.7
2018-Aug-31 16:30N 42°33' W 070°40'1 3.0
2018-Aug-31 16:03N 42°33' W 070°41'0 6.7
2018-Aug-31 16:00N 42°33' W 070°41'4 7.5
2018-Aug-31 15:30N 42°29' W 070°40'4 7.5
2018-Aug-31 15:00N 42°26' W 070°39'3 5.0
2018-Aug-31 14:30N 42°23' W 070°39'2 4.5
2018-Aug-31 14:00N 42°23' W 070°42'3 6.0
2018-Aug-31 13:30N 42°23' W 070°46'3 6.3
2018-Aug-31 13:03N 42°23' W 070°50'0 5.7
2018-Aug-31 13:00N 42°23' W 070°50'3 6.7
2018-Aug-31 12:30N 42°23' W 070°55'3 7.6
2018-Aug-31 12:03N 42°20' W 070°57'0 8.0
2018-Aug-31 12:00N 42°20' W 070°58'4 7.0
2018-Aug-31 11:30N 42°21' W 071°02'0 0.5
2018-Aug-31 11:02N 42°21' W 071°03'0 0.0
2018-Aug-31 10:59N 42°21' W 071°03'0 0.0
2018-Aug-31 10:29N 42°21' W 071°03'0 0.0
2018-Aug-31 10:02N 42°21' W 071°03'0 0.0
2018-Aug-31 09:59N 42°21' W 071°03'0 0.0
2018-Aug-31 09:29N 42°21' W 071°03'0 0.0
2018-Aug-31 09:02N 42°21' W 071°03'0 0.0
2018-Aug-31 08:59N 42°21' W 071°03'0 0.0
2018-Aug-31 08:29N 42°21' W 071°03'0 0.0
2018-Aug-31 08:02N 42°21' W 071°03'0 0.0
2018-Aug-31 07:59N 42°21' W 071°03'0 0.0
2018-Aug-31 07:29N 42°21' W 071°03'0 0.0
2018-Aug-31 07:02N 42°21' W 071°03'0 0.0
2018-Aug-31 06:59N 42°21' W 071°03'0 0.0
2018-Aug-31 06:29N 42°21' W 071°03'0 0.0
2018-Aug-31 06:02N 42°21' W 071°03'0 0.0
2018-Aug-31 05:59N 42°21' W 071°03'0 0.0
2018-Aug-31 05:29N 42°21' W 071°03'0 0.0
2018-Aug-31 05:02N 42°21' W 071°03'0 0.0
2018-Aug-31 04:59N 42°21' W 071°03'0 0.0
2018-Aug-31 04:29N 42°21' W 071°03'0 0.0
2018-Aug-31 04:02N 42°21' W 071°03'0 0.1
2018-Aug-31 03:59N 42°21' W 071°03'0 0.0
2018-Aug-31 03:29N 42°21' W 071°03'0 0.0
2018-Aug-31 03:02N 42°21' W 071°03'0 0.0
2018-Aug-31 02:59N 42°21' W 071°03'0 0.0
2018-Aug-31 02:29N 42°21' W 071°03'0 0.0
2018-Aug-31 02:02N 42°21' W 071°03'0 0.2
2018-Aug-31 01:59N 42°21' W 071°03'0 0.0
2018-Aug-31 01:29N 42°21' W 071°03'0 0.0
2018-Aug-31 01:02N 42°21' W 071°03'0 0.1
2018-Aug-31 00:59N 42°21' W 071°03'0 0.0
2018-Aug-31 00:29N 42°21' W 071°03'0 0.0
2018-Aug-30 23:59N 42°21' W 071°03'0 0.0
2018-Aug-30 23:29N 42°21' W 071°03'0 0.0
2018-Aug-30 23:02N 42°21' W 071°03'0 0.1
2018-Aug-30 22:59N 42°21' W 071°03'0 0.0
2018-Aug-30 22:29N 42°21' W 071°03'0 0.0
2018-Aug-30 22:02N 42°21' W 071°03'0 0.0
2018-Aug-30 21:59N 42°21' W 071°03'0 0.0
2018-Aug-30 21:29N 42°21' W 071°03'0 0.0
2018-Aug-30 21:02N 42°21' W 071°03'0 0.3
2018-Aug-30 20:59N 42°21' W 071°03'0 0.1
2018-Aug-30 20:29N 42°21' W 071°03'0 0.0
2018-Aug-30 19:59N 42°21' W 071°03'0 0.0
2018-Aug-30 19:02N 42°21' W 071°03'0 0.0
2018-Aug-30 18:59N 42°21' W 071°03'0 0.0
2018-Aug-30 18:29N 42°21' W 071°03'0 0.0
2018-Aug-30 18:02N 42°21' W 071°03'0 0.0
2018-Aug-30 17:59N 42°21' W 071°03'0 0.0
2018-Aug-30 17:29N 42°21' W 071°03'0 0.0
2018-Aug-30 16:59N 42°21' W 071°03'0 0.0
2018-Aug-30 16:20N 42°21' W 071°03'0 0.0
2018-Aug-30 16:02N 42°21' W 071°03'0 0.0
2018-Aug-30 15:59N 42°21' W 071°03'0 0.0
2018-Aug-30 15:29N 42°21' W 071°03'0 0.0
2018-Aug-30 14:02N 42°21' W 071°03'0 0.0
2018-Aug-30 13:59N 42°21' W 071°03'0 0.0
2018-Aug-30 13:23N 42°21' W 071°03'0 0.0
2018-Aug-30 12:38N 42°21' W 071°03'0 0.0
2018-Aug-30 12:26N 42°21' W 071°03'0 0.0
2018-Aug-30 12:02N 42°21' W 071°03'0 0.0
2018-Aug-30 11:59N 42°21' W 071°03'0 0.0
2018-Aug-30 11:29N 42°21' W 071°03'0 0.0
2018-Aug-30 11:02N 42°21' W 071°03'0 0.1
2018-Aug-30 10:59N 42°21' W 071°03'0 0.0
2018-Aug-30 10:29N 42°21' W 071°03'0 0.0
2018-Aug-30 09:59N 42°21' W 071°03'0 0.0
2018-Aug-30 09:29N 42°21' W 071°03'0 0.0
2018-Aug-30 08:44N 42°21' W 071°03'0 0.0
2018-Aug-30 07:05N 42°21' W 071°03'0 0.0
2018-Aug-30 06:59N 42°21' W 071°03'0 0.0
2018-Aug-30 06:23N 42°21' W 071°03'0 0.0
2018-Aug-30 04:32N 42°21' W 071°03'0 0.1
2018-Aug-30 04:29N 42°21' W 071°03'0 0.0
2018-Aug-30 03:59N 42°21' W 071°03'0 0.0
2018-Aug-30 03:26N 42°21' W 071°03'0 0.0
2018-Aug-30 03:01N 42°21' W 071°03'0 0.0
2018-Aug-30 02:53N 42°21' W 071°03'0 0.0
2018-Aug-30 02:29N 42°21' W 071°03'0 0.0
2018-Aug-30 01:56N 42°21' W 071°03'0 0.0
2018-Aug-30 01:29N 42°21' W 071°03'0 0.0
2018-Aug-30 00:59N 42°21' W 071°03'0 0.0
2018-Aug-30 00:29N 42°21' W 071°03'0 0.0
2018-Aug-30 00:02N 42°21' W 071°03'0 0.0
2018-Aug-29 23:59N 42°21' W 071°03'0 0.0
2018-Aug-29 23:29N 42°21' W 071°03'0 0.0
2018-Aug-29 23:02N 42°21' W 071°03'0 0.0
2018-Aug-29 22:59N 42°21' W 071°03'0 0.0
2018-Aug-29 22:29N 42°21' W 071°03'0 0.0
2018-Aug-29 22:02N 42°21' W 071°03'0 0.0
2018-Aug-29 21:59N 42°21' W 071°03'0 0.0
2018-Aug-29 21:29N 42°21' W 071°03'0 0.0
2018-Aug-29 20:58N 42°21' W 071°03'0 0.0
2018-Aug-29 20:29N 42°21' W 071°03'0 0.0
2018-Aug-29 20:02N 42°21' W 071°03'0 0.0
2018-Aug-29 19:58N 42°21' W 071°03'0 0.0
2018-Aug-29 19:29N 42°21' W 071°03'0 0.0
2018-Aug-29 19:01N 42°21' W 071°03'0 0.1
2018-Aug-29 18:59N 42°21' W 071°03'0 0.0
2018-Aug-29 18:29N 42°21' W 071°03'0 0.0
2018-Aug-29 18:02N 42°21' W 071°03'0 0.0
2018-Aug-29 17:58N 42°21' W 071°03'0 0.0
2018-Aug-29 17:29N 42°21' W 071°03'0 0.0
2018-Aug-29 17:02N 42°21' W 071°03'0 0.0
2018-Aug-29 16:59N 42°21' W 071°03'0 0.0
2018-Aug-29 16:29N 42°21' W 071°03'0 0.0
2018-Aug-29 16:01N 42°21' W 071°03'0 0.0
2018-Aug-29 15:58N 42°21' W 071°03'0 0.0
2018-Aug-29 15:29N 42°21' W 071°03'0 0.0
2018-Aug-29 15:02N 42°21' W 071°03'0 0.1
2018-Aug-29 14:59N 42°21' W 071°03'0 0.0
2018-Aug-29 13:59N 42°21' W 071°03'0 0.0
2018-Aug-29 13:28N 42°21' W 071°03'0 0.0
2018-Aug-29 13:02N 42°21' W 071°03'0 0.0
2018-Aug-29 12:59N 42°21' W 071°03'0 0.0
2018-Aug-29 12:26N 42°21' W 071°03'0 0.0
2018-Aug-29 12:01N 42°21' W 071°03'0 0.0
2018-Aug-29 11:59N 42°21' W 071°03'0 0.0
2018-Aug-29 11:29N 42°21' W 071°03'0 0.0
2018-Aug-29 11:02N 42°21' W 071°03'0 0.0
2018-Aug-29 10:58N 42°21' W 071°03'0 0.0
2018-Aug-29 10:29N 42°21' W 071°03'0 0.0
2018-Aug-29 10:02N 42°21' W 071°03'0 0.0
2018-Aug-29 09:58N 42°21' W 071°03'0 0.0
2018-Aug-29 09:29N 42°21' W 071°03'0 0.0
2018-Aug-29 09:01N 42°21' W 071°03'0 0.2
2018-Aug-29 08:59N 42°21' W 071°03'0 0.0
2018-Aug-29 08:29N 42°21' W 071°03'0 0.0
2018-Aug-29 08:02N 42°21' W 071°03'0 0.0
2018-Aug-29 07:59N 42°21' W 071°03'0 0.0
2018-Aug-29 07:29N 42°21' W 071°03'0 0.0
2018-Aug-29 07:01N 42°21' W 071°03'0 0.1
2018-Aug-29 06:59N 42°21' W 071°03'0 0.0
2018-Aug-29 06:28N 42°21' W 071°03'0 0.0
2018-Aug-29 06:02N 42°21' W 071°03'0 0.1
2018-Aug-29 05:59N 42°21' W 071°03'0 0.0
2018-Aug-29 05:29N 42°21' W 071°03'0 0.0
2018-Aug-29 05:02N 42°21' W 071°03'0 0.2
2018-Aug-29 04:59N 42°21' W 071°03'0 0.0
2018-Aug-29 04:29N 42°21' W 071°03'0 0.0
2018-Aug-29 03:59N 42°21' W 071°03'0 0.0
2018-Aug-29 03:29N 42°21' W 071°03'0 0.0
2018-Aug-29 03:01N 42°21' W 071°03'0 0.1
2018-Aug-29 02:59N 42°21' W 071°03'0 0.0
2018-Aug-29 02:29N 42°21' W 071°03'0 0.0
2018-Aug-29 02:02N 42°21' W 071°03'0 0.0
2018-Aug-29 01:59N 42°21' W 071°03'0 0.0
2018-Aug-29 01:28N 42°21' W 071°03'0 0.0
2018-Aug-29 01:02N 42°21' W 071°03'0 0.0
2018-Aug-29 00:59N 42°21' W 071°03'0 0.0
2018-Aug-29 00:28N 42°21' W 071°03'0 0.0
2018-Aug-29 00:01N 42°21' W 071°03'0 0.1
2018-Aug-28 23:58N 42°21' W 071°03'0 0.0
2018-Aug-28 23:28N 42°21' W 071°03'0 0.0
2018-Aug-28 23:01N 42°21' W 071°03'0 0.0
2018-Aug-28 22:59N 42°21' W 071°03'0 0.0
2018-Aug-28 22:28N 42°21' W 071°03'0 0.0
2018-Aug-28 22:01N 42°21' W 071°03'0 0.1
2018-Aug-28 21:59N 42°21' W 071°03'0 0.0
2018-Aug-28 21:28N 42°21' W 071°03'0 0.0
2018-Aug-28 21:01N 42°21' W 071°03'0 0.1
2018-Aug-28 20:58N 42°21' W 071°03'0 0.0
2018-Aug-28 20:29N 42°21' W 071°03'0 0.0
2018-Aug-28 20:01N 42°21' W 071°03'0 0.0
2018-Aug-28 19:58N 42°21' W 071°03'0 0.0
2018-Aug-28 19:28N 42°21' W 071°03'0 0.0
2018-Aug-28 19:01N 42°21' W 071°03'0 0.0
2018-Aug-28 18:56N 42°21' W 071°03'0 0.0
2018-Aug-28 18:29N 42°21' W 071°03'0 0.0
2018-Aug-28 18:03N 42°21' W 071°03'0 0.0
2018-Aug-28 18:01N 42°21' W 071°03'1 2.9
2018-Aug-28 17:31N 42°21' W 071°01'2 5.1
2018-Aug-28 17:03N 42°20' W 070°58'0 5.5
2018-Aug-28 17:00N 42°20' W 070°57'3 5.4
2018-Aug-28 16:30N 42°22' W 070°55'2 4.2
2018-Aug-28 16:04N 42°23' W 070°53'0 5.5
2018-Aug-28 16:00N 42°23' W 070°52'3 5.4
2018-Aug-28 15:31N 42°24' W 070°49'3 6.5
2018-Aug-28 15:03N 42°25' W 070°45'0 6.7
2018-Aug-28 15:00N 42°25' W 070°45'3 6.2
2018-Aug-28 14:30N 42°25' W 070°40'3 2.9
2018-Aug-28 13:30N 42°26' W 070°37'2 5.3
2018-Aug-28 13:03N 42°28' W 070°38'0 4.8
2018-Aug-28 13:00N 42°29' W 070°38'2 4.9
2018-Aug-28 12:30N 42°31' W 070°39'2 4.8
2018-Aug-28 12:03N 42°33' W 070°40'0 5.2
2018-Aug-28 12:00N 42°33' W 070°40'2 3.0
2018-Aug-28 11:30N 42°33' W 070°38'2 5.2
2018-Aug-28 11:03N 42°32' W 070°35'0 2.9
2018-Aug-28 11:01N 42°32' W 070°35'0 0.8
2018-Aug-28 10:30N 42°32' W 070°34'2 3.5
2018-Aug-28 10:03N 42°34' W 070°33'0 4.9
2018-Aug-28 10:00N 42°34' W 070°33'2 4.8
2018-Aug-28 09:30N 42°36' W 070°31'2 4.6
2018-Aug-28 09:03N 42°37' W 070°29'0 4.5
2018-Aug-28 09:00N 42°37' W 070°28'2 3.9
2018-Aug-28 08:30N 42°37' W 070°31'2 5.4
2018-Aug-28 08:03N 42°36' W 070°34'0 5.4
2018-Aug-28 07:59N 42°36' W 070°35'2 4.5
2018-Aug-28 07:30N 42°34' W 070°36'2 5.3
2018-Aug-28 07:03N 42°32' W 070°35'0 5.2
2018-Aug-28 07:00N 42°31' W 070°35'3 5.1
2018-Aug-28 06:30N 42°29' W 070°33'2 4.9
2018-Aug-28 06:03N 42°27' W 070°33'0 5.1
2018-Aug-28 06:00N 42°27' W 070°33'2 3.6
2018-Aug-28 05:30N 42°26' W 070°30'2 4.5
2018-Aug-28 05:03N 42°27' W 070°28'0 4.6
2018-Aug-28 05:00N 42°27' W 070°27'3 5.1
2018-Aug-28 04:30N 42°27' W 070°24'3 5.3
2018-Aug-28 04:02N 42°28' W 070°20'0 5.2
2018-Aug-28 04:00N 42°28' W 070°20'3 5.3
2018-Aug-28 03:30N 42°28' W 070°17'2 5.4
2018-Aug-28 03:03N 42°29' W 070°14'0 5.5
2018-Aug-28 03:00N 42°29' W 070°13'3 5.0
2018-Aug-28 02:30N 42°30' W 070°10'2 4.8
2018-Aug-28 02:03N 42°31' W 070°07'0 4.9
2018-Aug-28 02:01N 42°31' W 070°07'3 5.2
2018-Aug-28 01:30N 42°32' W 070°04'2 5.4
2018-Aug-28 01:03N 42°33' W 070°01'0 5.3
2018-Aug-28 01:00N 42°33' W 070°01'4 5.3
2018-Aug-28 00:14N 42°35' W 069°55'1 5.0
2018-Aug-28 00:00N 42°35' W 069°54'3 5.1
2018-Aug-27 23:27N 42°36' W 069°50'2 5.5
2018-Aug-27 23:03N 42°37' W 069°48'0 7.8
2018-Aug-27 23:00N 42°37' W 069°47'4 7.5
2018-Aug-27 22:29N 42°38' W 069°42'  
Track history (hours):
 
Tides and Currents Weather Stations Pressure Air Temp Water Temp Dewpoint Dewpoint Depression Visibility Wind Speed Wind Dir Waves Ship Positions

Bluenose II (Canada)

Ship's website: http://www.schoonerbluenose2.ca/

Last reported at 2018-Sep-03 22:18 UTC. Time now 2018-Dec-12 04:52 UTC.
Position N 42°44' W 069°60'.
Warning: this ship's position is months out of date.

Length 55 m; draft 5 m.

Type: Sailing vessel. MMSI: 316245000.

Date/timePositionNaut miles runAvg speedWind from/ knotsBaromVisibWave heightAir tempDewpointWater temp
2018-Sep-03 22:18N 42°44' W 069°60'2 6.8
2018-Sep-03 22:03N 42°43' W 070°02'1 7.1
2018-Sep-03 21:59N 42°42' W 070°02'4 7.7
2018-Sep-03 21:30N 42°41' W 070°07'3 6.2
2018-Sep-03 21:03N 42°40' W 070°10'0 6.7
2018-Sep-03 21:00N 42°40' W 070°11'3 6.2
2018-Sep-03 20:30N 42°39' W 070°15'3 7.0
2018-Sep-03 20:03N 42°38' W 070°19'0 7.0
2018-Sep-03 20:00N 42°38' W 070°19'4 8.0
2018-Sep-03 19:30N 42°36' W 070°24'4 9.8
2018-Sep-03 19:03N 42°35' W 070°30'110.1
2018-Sep-03 19:00N 42°35' W 070°31'5 9.7
2018-Sep-03 18:30N 42°34' W 070°37'3 6.4
2018-Sep-03 18:03N 42°35' W 070°41'0 6.4
2018-Sep-03 18:00N 42°35' W 070°41'2 3.1
2018-Sep-03 17:29N 42°37' W 070°40'0 0.0
2018-Sep-03 16:59N 42°37' W 070°40'0 0.0
2018-Sep-03 16:29N 42°37' W 070°40'0 0.0
2018-Sep-03 15:29N 42°37' W 070°40'0 0.0
2018-Sep-03 14:59N 42°37' W 070°40'0 0.0
2018-Sep-03 14:29N 42°37' W 070°40'0 0.0
2018-Sep-03 13:53N 42°37' W 070°40'0 0.0
2018-Sep-03 13:29N 42°37' W 070°40'0 0.0
2018-Sep-03 13:02N 42°37' W 070°40'0 0.0
2018-Sep-03 12:59N 42°37' W 070°40'0 0.0
2018-Sep-03 12:29N 42°37' W 070°40'0 0.0
2018-Sep-03 11:59N 42°37' W 070°40'0 0.0
2018-Sep-03 11:29N 42°37' W 070°40'0 0.0
2018-Sep-03 11:02N 42°37' W 070°40'0 0.0
2018-Sep-03 10:59N 42°37' W 070°40'0 0.0
2018-Sep-03 10:29N 42°37' W 070°40'0 0.0
2018-Sep-03 09:59N 42°37' W 070°40'0 0.0
2018-Sep-03 09:29N 42°37' W 070°40'0 0.0
2018-Sep-03 09:02N 42°37' W 070°40'0 0.0
2018-Sep-03 08:59N 42°37' W 070°40'0 0.0
2018-Sep-03 08:29N 42°37' W 070°40'0 0.0
2018-Sep-03 07:59N 42°37' W 070°40'0 0.0
2018-Sep-03 07:29N 42°37' W 070°40'0 0.0
2018-Sep-03 07:02N 42°37' W 070°40'0 0.0
2018-Sep-03 06:53N 42°37' W 070°40'0 0.0
2018-Sep-03 06:29N 42°37' W 070°40'0 0.0
2018-Sep-03 06:02N 42°37' W 070°40'0 0.0
2018-Sep-03 05:59N 42°37' W 070°40'0 0.0
2018-Sep-03 05:29N 42°37' W 070°40'0 0.0
2018-Sep-03 05:02N 42°37' W 070°40'0 0.1
2018-Sep-03 04:59N 42°37' W 070°40'0 0.0
2018-Sep-03 04:29N 42°37' W 070°40'0 0.0
2018-Sep-03 04:02N 42°37' W 070°40'0 0.2
2018-Sep-03 03:59N 42°37' W 070°40'0 0.0
2018-Sep-03 03:29N 42°37' W 070°40'0 0.0
2018-Sep-03 03:02N 42°37' W 070°40'0 0.0
2018-Sep-03 02:59N 42°37' W 070°40'0 0.0
2018-Sep-03 02:29N 42°37' W 070°40'0 0.0
2018-Sep-03 02:02N 42°37' W 070°40'0 0.0
2018-Sep-03 01:56N 42°37' W 070°40'0 0.0
2018-Sep-03 01:29N 42°37' W 070°40'0 0.0
2018-Sep-03 01:02N 42°37' W 070°40'0 0.0
2018-Sep-03 00:56N 42°37' W 070°40'0 0.0
2018-Sep-03 00:29N 42°37' W 070°40'0 0.0
2018-Sep-03 00:02N 42°37' W 070°40'0 0.1
2018-Sep-02 23:59N 42°37' W 070°40'0 0.0
2018-Sep-02 23:29N 42°37' W 070°40'0 0.0
2018-Sep-02 23:02N 42°37' W 070°40'0 0.0
2018-Sep-02 22:53N 42°37' W 070°40'0 0.0
2018-Sep-02 22:29N 42°37' W 070°40'0 0.0
2018-Sep-02 22:02N 42°37' W 070°40'0 0.0
2018-Sep-02 21:59N 42°37' W 070°40'0 0.0
2018-Sep-02 21:26N 42°37' W 070°40'0 0.0
2018-Sep-02 20:57N 42°37' W 070°40'0 0.1
2018-Sep-02 20:30N 42°37' W 070°40'1 1.2
2018-Sep-02 20:03N 42°36' W 070°40'0 2.0
2018-Sep-02 20:00N 42°36' W 070°40'1 2.7
2018-Sep-02 19:30N 42°35' W 070°41'3 6.2
2018-Sep-02 19:03N 42°33' W 070°43'0 6.9
2018-Sep-02 19:00N 42°33' W 070°44'3 3.2
2018-Sep-02 18:03N 42°34' W 070°40'0 0.6
2018-Sep-02 17:30N 42°33' W 070°40'2 5.5
2018-Sep-02 17:03N 42°33' W 070°36'0 4.3
2018-Sep-02 17:00N 42°33' W 070°36'2 3.7
2018-Sep-02 16:30N 42°34' W 070°38'2 4.1
2018-Sep-02 16:03N 42°35' W 070°40'0 5.6
2018-Sep-02 16:00N 42°35' W 070°41'1 1.9
2018-Sep-02 15:30N 42°36' W 070°41'1 1.7
2018-Sep-02 15:03N 42°36' W 070°40'0 2.9
2018-Sep-02 15:00N 42°36' W 070°40'0 0.4
2018-Sep-02 14:29N 42°37' W 070°40'0 0.0
2018-Sep-02 13:59N 42°37' W 070°40'0 0.0
2018-Sep-02 13:29N 42°37' W 070°40'0 0.0
2018-Sep-02 13:02N 42°37' W 070°40'0 0.2
2018-Sep-02 12:59N 42°37' W 070°40'0 0.0
2018-Sep-02 12:29N 42°37' W 070°40'0 0.0
2018-Sep-02 12:02N 42°37' W 070°40'0 0.0
2018-Sep-02 11:59N 42°37' W 070°40'0 0.0
2018-Sep-02 11:26N 42°37' W 070°40'0 0.0
2018-Sep-02 11:02N 42°37' W 070°40'0 0.1
2018-Sep-02 10:59N 42°37' W 070°40'0 0.0
2018-Sep-02 10:29N 42°37' W 070°40'0 0.0
2018-Sep-02 10:02N 42°37' W 070°40'0 0.0
2018-Sep-02 09:59N 42°37' W 070°40'0 0.0
2018-Sep-02 09:23N 42°37' W 070°40'0 0.0
2018-Sep-02 09:02N 42°37' W 070°40'0 0.1
2018-Sep-02 08:59N 42°37' W 070°40'0 0.0
2018-Sep-02 08:26N 42°37' W 070°40'0 0.0
2018-Sep-02 07:56N 42°37' W 070°40'0 0.0
2018-Sep-02 07:29N 42°37' W 070°40'0 0.0
2018-Sep-02 07:02N 42°37' W 070°40'0 0.0
2018-Sep-02 06:56N 42°37' W 070°40'0 0.0
2018-Sep-02 06:29N 42°37' W 070°40'0 0.0
2018-Sep-02 06:02N 42°37' W 070°40'0 0.0
2018-Sep-02 05:59N 42°37' W 070°40'0 0.0
2018-Sep-02 05:29N 42°37' W 070°40'0 0.0
2018-Sep-02 05:02N 42°37' W 070°40'0 0.1
2018-Sep-02 04:59N 42°37' W 070°40'0 0.0
2018-Sep-02 04:26N 42°37' W 070°40'0 0.0
2018-Sep-02 04:02N 42°37' W 070°40'0 0.0
2018-Sep-02 03:56N 42°37' W 070°40'0 0.0
2018-Sep-02 03:29N 42°37' W 070°40'0 0.0
2018-Sep-02 03:02N 42°37' W 070°40'0 0.1
2018-Sep-02 02:59N 42°37' W 070°40'0 0.0
2018-Sep-02 02:29N 42°37' W 070°40'0 0.0
2018-Sep-02 01:56N 42°37' W 070°40'0 0.0
2018-Sep-02 01:29N 42°37' W 070°40'0 0.0
2018-Sep-02 01:02N 42°37' W 070°40'0 0.1
2018-Sep-02 00:59N 42°37' W 070°40'0 0.0
2018-Sep-02 00:29N 42°37' W 070°40'0 0.0
2018-Sep-02 00:02N 42°37' W 070°40'0 0.2
2018-Sep-01 23:59N 42°37' W 070°40'0 0.0
2018-Sep-01 23:29N 42°37' W 070°40'0 0.0
2018-Sep-01 23:02N 42°37' W 070°40'0 0.0
2018-Sep-01 22:59N 42°37' W 070°40'0 0.0
2018-Sep-01 22:29N 42°37' W 070°40'0 0.0
2018-Sep-01 22:02N 42°37' W 070°40'0 0.0
2018-Sep-01 21:59N 42°37' W 070°40'0 0.0
2018-Sep-01 21:29N 42°37' W 070°40'0 0.0
2018-Sep-01 21:02N 42°37' W 070°40'0 0.0
2018-Sep-01 20:59N 42°37' W 070°40'0 0.0
2018-Sep-01 20:29N 42°37' W 070°40'0 0.0
2018-Sep-01 20:02N 42°37' W 070°40'0 0.1
2018-Sep-01 19:56N 42°37' W 070°40'0 0.0
2018-Sep-01 19:26N 42°37' W 070°40'0 0.0
2018-Sep-01 19:02N 42°37' W 070°40'0 0.1
2018-Sep-01 18:59N 42°37' W 070°40'0 0.0
2018-Sep-01 18:26N 42°37' W 070°40'0 0.0
2018-Sep-01 18:02N 42°37' W 070°40'0 0.0
2018-Sep-01 17:59N 42°37' W 070°40'0 0.0
2018-Sep-01 17:29N 42°37' W 070°40'0 0.0
2018-Sep-01 16:53N 42°37' W 070°40'0 0.0
2018-Sep-01 16:26N 42°37' W 070°40'0 0.0
2018-Sep-01 16:02N 42°37' W 070°40'0 0.1
2018-Sep-01 15:59N 42°37' W 070°40'0 0.0
2018-Sep-01 15:29N 42°37' W 070°40'0 0.0
2018-Sep-01 15:02N 42°37' W 070°40'0 0.0
2018-Sep-01 14:59N 42°37' W 070°40'0 0.0
2018-Sep-01 14:26N 42°37' W 070°40'0 0.4
2018-Sep-01 13:57N 42°37' W 070°39'0 0.0
2018-Sep-01 13:30N 42°37' W 070°39'0 0.0
2018-Sep-01 13:00N 42°37' W 070°39'0 0.0
2018-Sep-01 12:30N 42°37' W 070°39'0 0.0
2018-Sep-01 12:00N 42°37' W 070°39'0 0.0
2018-Sep-01 11:30N 42°37' W 070°39'0 0.0
2018-Sep-01 11:03N 42°37' W 070°39'0 0.0
2018-Sep-01 11:00N 42°37' W 070°39'0 0.0
2018-Sep-01 10:30N 42°37' W 070°39'0 0.0
2018-Sep-01 10:00N 42°37' W 070°39'0 0.0
2018-Sep-01 09:30N 42°37' W 070°39'0 0.0
2018-Sep-01 09:00N 42°37' W 070°39'0 0.0
2018-Sep-01 08:30N 42°37' W 070°39'0 0.0
2018-Sep-01 08:03N 42°37' W 070°39'0 0.1
2018-Sep-01 08:00N 42°37' W 070°39'0 0.0
2018-Sep-01 07:30N 42°37' W 070°39'0 0.0
2018-Sep-01 07:03N 42°37' W 070°39'0 0.1
2018-Sep-01 06:57N 42°37' W 070°39'0 0.0
2018-Sep-01 06:30N 42°37' W 070°39'0 0.0
2018-Sep-01 06:03N 42°37' W 070°39'0 0.1
2018-Sep-01 05:57N 42°37' W 070°39'0 0.0
2018-Sep-01 05:30N 42°37' W 070°39'0 0.0
2018-Sep-01 05:03N 42°37' W 070°39'0 0.1
2018-Sep-01 05:00N 42°37' W 070°39'0 0.0
2018-Sep-01 04:30N 42°37' W 070°39'0 0.0
2018-Sep-01 04:03N 42°37' W 070°39'0 0.0
2018-Sep-01 04:00N 42°37' W 070°39'0 0.0
2018-Sep-01 03:27N 42°37' W 070°39'0 0.0
2018-Sep-01 03:03N 42°37' W 070°39'0 0.1
2018-Sep-01 02:57N 42°37' W 070°39'0 0.0
2018-Sep-01 02:30N 42°37' W 070°39'0 0.0
2018-Sep-01 02:00N 42°37' W 070°39'0 0.0
2018-Sep-01 01:30N 42°37' W 070°39'0 0.0
2018-Sep-01 01:03N 42°37' W 070°39'0 0.0
2018-Sep-01 01:00N 42°37' W 070°39'0 0.0
2018-Sep-01 00:30N 42°37' W 070°39'0 0.0
2018-Sep-01 00:00N 42°37' W 070°39'0 0.0
2018-Aug-31 23:30N 42°37' W 070°39'0 0.0
2018-Aug-31 23:00N 42°37' W 070°39'0 0.0
2018-Aug-31 22:30N 42°37' W 070°39'0 0.0
2018-Aug-31 22:03N 42°37' W 070°39'0 0.0
2018-Aug-31 21:57N 42°37' W 070°39'0 0.0
2018-Aug-31 21:27N 42°37' W 070°39'0 0.0
2018-Aug-31 21:03N 42°37' W 070°39'0 0.2
2018-Aug-31 21:00N 42°37' W 070°39'0 0.0
2018-Aug-31 20:30N 42°37' W 070°39'0 0.0
2018-Aug-31 20:03N 42°37' W 070°39'0 0.0
2018-Aug-31 19:59N 42°37' W 070°39'0 0.0
2018-Aug-31 19:30N 42°37' W 070°39'0 0.0
2018-Aug-31 19:03N 42°37' W 070°39'0 0.0
2018-Aug-31 19:00N 42°37' W 070°39'0 0.0
2018-Aug-31 18:30N 42°37' W 070°39'0 0.2
2018-Aug-31 18:03N 42°37' W 070°40'0 0.4
2018-Aug-31 18:00N 42°37' W 070°40'1 2.5
2018-Aug-31 17:30N 42°36' W 070°41'2 5.4
2018-Aug-31 17:03N 42°33' W 070°40'0 4.6
2018-Aug-31 17:00N 42°33' W 070°40'1 1.7
2018-Aug-31 16:30N 42°33' W 070°40'1 3.0
2018-Aug-31 16:03N 42°33' W 070°41'0 6.7
2018-Aug-31 16:00N 42°33' W 070°41'4 7.5
2018-Aug-31 15:30N 42°29' W 070°40'4 7.5
2018-Aug-31 15:00N 42°26' W 070°39'3 5.0
2018-Aug-31 14:30N 42°23' W 070°39'2 4.5
2018-Aug-31 14:00N 42°23' W 070°42'3 6.0
2018-Aug-31 13:30N 42°23' W 070°46'3 6.3
2018-Aug-31 13:03N 42°23' W 070°50'0 5.7
2018-Aug-31 13:00N 42°23' W 070°50'3 6.7
2018-Aug-31 12:30N 42°23' W 070°55'3 7.6
2018-Aug-31 12:03N 42°20' W 070°57'0 8.0
2018-Aug-31 12:00N 42°20' W 070°58'4 7.0
2018-Aug-31 11:30N 42°21' W 071°02'0 0.5
2018-Aug-31 11:02N 42°21' W 071°03'0 0.0
2018-Aug-31 10:59N 42°21' W 071°03'0 0.0
2018-Aug-31 10:29N 42°21' W 071°03'0 0.0
2018-Aug-31 10:02N 42°21' W 071°03'0 0.0
2018-Aug-31 09:59N 42°21' W 071°03'0 0.0
2018-Aug-31 09:29N 42°21' W 071°03'0 0.0
2018-Aug-31 09:02N 42°21' W 071°03'0 0.0
2018-Aug-31 08:59N 42°21' W 071°03'0 0.0
2018-Aug-31 08:29N 42°21' W 071°03'0 0.0
2018-Aug-31 08:02N 42°21' W 071°03'0 0.0
2018-Aug-31 07:59N 42°21' W 071°03'0 0.0
2018-Aug-31 07:29N 42°21' W 071°03'0 0.0
2018-Aug-31 07:02N 42°21' W 071°03'0 0.0
2018-Aug-31 06:59N 42°21' W 071°03'0 0.0
2018-Aug-31 06:29N 42°21' W 071°03'0 0.0
2018-Aug-31 06:02N 42°21' W 071°03'0 0.0
2018-Aug-31 05:59N 42°21' W 071°03'0 0.0
2018-Aug-31 05:29N 42°21' W 071°03'0 0.0
2018-Aug-31 05:02N 42°21' W 071°03'0 0.0
2018-Aug-31 04:59N 42°21' W 071°03'0 0.0
2018-Aug-31 04:29N 42°21' W 071°03'0 0.0
2018-Aug-31 04:02N 42°21' W 071°03'0 0.1
2018-Aug-31 03:59N 42°21' W 071°03'0 0.0
2018-Aug-31 03:29N 42°21' W 071°03'0 0.0
2018-Aug-31 03:02N 42°21' W 071°03'0 0.0
2018-Aug-31 02:59N 42°21' W 071°03'0 0.0
2018-Aug-31 02:29N 42°21' W 071°03'0 0.0
2018-Aug-31 02:02N 42°21' W 071°03'0 0.2
2018-Aug-31 01:59N 42°21' W 071°03'0 0.0
2018-Aug-31 01:29N 42°21' W 071°03'0 0.0
2018-Aug-31 01:02N 42°21' W 071°03'0 0.1
2018-Aug-31 00:59N 42°21' W 071°03'0 0.0
2018-Aug-31 00:29N 42°21' W 071°03'0 0.0
2018-Aug-30 23:59N 42°21' W 071°03'0 0.0
2018-Aug-30 23:29N 42°21' W 071°03'0 0.0
2018-Aug-30 23:02N 42°21' W 071°03'0 0.1
2018-Aug-30 22:59N 42°21' W 071°03'0 0.0
2018-Aug-30 22:29N 42°21' W 071°03'0 0.0
2018-Aug-30 22:02N 42°21' W 071°03'0 0.0
2018-Aug-30 21:59N 42°21' W 071°03'0 0.0
2018-Aug-30 21:29N 42°21' W 071°03'0 0.0
2018-Aug-30 21:02N 42°21' W 071°03'0 0.3
2018-Aug-30 20:59N 42°21' W 071°03'0 0.1
2018-Aug-30 20:29N 42°21' W 071°03'0 0.0
2018-Aug-30 19:59N 42°21' W 071°03'0 0.0
2018-Aug-30 19:02N 42°21' W 071°03'0 0.0
2018-Aug-30 18:59N 42°21' W 071°03'0 0.0
2018-Aug-30 18:29N 42°21' W 071°03'0 0.0
2018-Aug-30 18:02N 42°21' W 071°03'0 0.0
2018-Aug-30 17:59N 42°21' W 071°03'0 0.0
2018-Aug-30 17:29N 42°21' W 071°03'0 0.0
2018-Aug-30 16:59N 42°21' W 071°03'0 0.0
2018-Aug-30 16:20N 42°21' W 071°03'0 0.0
2018-Aug-30 16:02N 42°21' W 071°03'0 0.0
2018-Aug-30 15:59N 42°21' W 071°03'0 0.0
2018-Aug-30 15:29N 42°21' W 071°03'0 0.0
2018-Aug-30 14:02N 42°21' W 071°03'0 0.0
2018-Aug-30 13:59N 42°21' W 071°03'0 0.0
2018-Aug-30 13:23N 42°21' W 071°03'0 0.0
2018-Aug-30 12:38N 42°21' W 071°03'0 0.0
2018-Aug-30 12:26N 42°21' W 071°03'0 0.0
2018-Aug-30 12:02N 42°21' W 071°03'0 0.0
2018-Aug-30 11:59N 42°21' W 071°03'0 0.0
2018-Aug-30 11:29N 42°21' W 071°03'0 0.0
2018-Aug-30 11:02N 42°21' W 071°03'0 0.1
2018-Aug-30 10:59N 42°21' W 071°03'0 0.0
2018-Aug-30 10:29N 42°21' W 071°03'0 0.0
2018-Aug-30 09:59N 42°21' W 071°03'0 0.0
2018-Aug-30 09:29N 42°21' W 071°03'0 0.0
2018-Aug-30 08:44N 42°21' W 071°03'0 0.0
2018-Aug-30 07:05N 42°21' W 071°03'0 0.0
2018-Aug-30 06:59N 42°21' W 071°03'0 0.0
2018-Aug-30 06:23N 42°21' W 071°03'0 0.0
2018-Aug-30 04:32N 42°21' W 071°03'0 0.1
2018-Aug-30 04:29N 42°21' W 071°03'0 0.0
2018-Aug-30 03:59N 42°21' W 071°03'0 0.0
2018-Aug-30 03:26N 42°21' W 071°03'0 0.0
2018-Aug-30 03:01N 42°21' W 071°03'0 0.0
2018-Aug-30 02:53N 42°21' W 071°03'0 0.0
2018-Aug-30 02:29N 42°21' W 071°03'0 0.0
2018-Aug-30 01:56N 42°21' W 071°03'0 0.0
2018-Aug-30 01:29N 42°21' W 071°03'0 0.0
2018-Aug-30 00:59N 42°21' W 071°03'0 0.0
2018-Aug-30 00:29N 42°21' W 071°03'0 0.0
2018-Aug-30 00:02N 42°21' W 071°03'0 0.0
2018-Aug-29 23:59N 42°21' W 071°03'0 0.0
2018-Aug-29 23:29N 42°21' W 071°03'0 0.0
2018-Aug-29 23:02N 42°21' W 071°03'0 0.0
2018-Aug-29 22:59N 42°21' W 071°03'0 0.0
2018-Aug-29 22:29N 42°21' W 071°03'0 0.0
2018-Aug-29 22:02N 42°21' W 071°03'0 0.0
2018-Aug-29 21:59N 42°21' W 071°03'0 0.0
2018-Aug-29 21:29N 42°21' W 071°03'0 0.0
2018-Aug-29 20:58N 42°21' W 071°03'0 0.0
2018-Aug-29 20:29N 42°21' W 071°03'0 0.0
2018-Aug-29 20:02N 42°21' W 071°03'0 0.0
2018-Aug-29 19:58N 42°21' W 071°03'0 0.0
2018-Aug-29 19:29N 42°21' W 071°03'0 0.0
2018-Aug-29 19:01N 42°21' W 071°03'0 0.1
2018-Aug-29 18:59N 42°21' W 071°03'0 0.0
2018-Aug-29 18:29N 42°21' W 071°03'0 0.0
2018-Aug-29 18:02N 42°21' W 071°03'0 0.0
2018-Aug-29 17:58N 42°21' W 071°03'0 0.0
2018-Aug-29 17:29N 42°21' W 071°03'0 0.0
2018-Aug-29 17:02N 42°21' W 071°03'0 0.0
2018-Aug-29 16:59N 42°21' W 071°03'0 0.0
2018-Aug-29 16:29N 42°21' W 071°03'0 0.0
2018-Aug-29 16:01N 42°21' W 071°03'0 0.0
2018-Aug-29 15:58N 42°21' W 071°03'0 0.0
2018-Aug-29 15:29N 42°21' W 071°03'0 0.0
2018-Aug-29 15:02N 42°21' W 071°03'0 0.1
2018-Aug-29 14:59N 42°21' W 071°03'0 0.0
2018-Aug-29 13:59N 42°21' W 071°03'0 0.0
2018-Aug-29 13:28N 42°21' W 071°03'0 0.0
2018-Aug-29 13:02N 42°21' W 071°03'0 0.0
2018-Aug-29 12:59N 42°21' W 071°03'0 0.0
2018-Aug-29 12:26N 42°21' W 071°03'0 0.0
2018-Aug-29 12:01N 42°21' W 071°03'0 0.0
2018-Aug-29 11:59N 42°21' W 071°03'0 0.0
2018-Aug-29 11:29N 42°21' W 071°03'0 0.0
2018-Aug-29 11:02N 42°21' W 071°03'0 0.0
2018-Aug-29 10:58N 42°21' W 071°03'0 0.0
2018-Aug-29 10:29N 42°21' W 071°03'0 0.0
2018-Aug-29 10:02N 42°21' W 071°03'0 0.0
2018-Aug-29 09:58N 42°21' W 071°03'0 0.0
2018-Aug-29 09:29N 42°21' W 071°03'0 0.0
2018-Aug-29 09:01N 42°21' W 071°03'0 0.2
2018-Aug-29 08:59N 42°21' W 071°03'0 0.0
2018-Aug-29 08:29N 42°21' W 071°03'0 0.0
2018-Aug-29 08:02N 42°21' W 071°03'0 0.0
2018-Aug-29 07:59N 42°21' W 071°03'0 0.0
2018-Aug-29 07:29N 42°21' W 071°03'0 0.0
2018-Aug-29 07:01N 42°21' W 071°03'0 0.1
2018-Aug-29 06:59N 42°21' W 071°03'0 0.0
2018-Aug-29 06:28N 42°21' W 071°03'0 0.0
2018-Aug-29 06:02N 42°21' W 071°03'0 0.1
2018-Aug-29 05:59N 42°21' W 071°03'0 0.0
2018-Aug-29 05:29N 42°21' W 071°03'0 0.0
2018-Aug-29 05:02N 42°21' W 071°03'0 0.2
2018-Aug-29 04:59N 42°21' W 071°03'0 0.0
2018-Aug-29 04:29N 42°21' W 071°03'0 0.0
2018-Aug-29 03:59N 42°21' W 071°03'0 0.0
2018-Aug-29 03:29N 42°21' W 071°03'0 0.0
2018-Aug-29 03:01N 42°21' W 071°03'0 0.1
2018-Aug-29 02:59N 42°21' W 071°03'0 0.0
2018-Aug-29 02:29N 42°21' W 071°03'0 0.0
2018-Aug-29 02:02N 42°21' W 071°03'0 0.0
2018-Aug-29 01:59N 42°21' W 071°03'0 0.0
2018-Aug-29 01:28N 42°21' W 071°03'0 0.0
2018-Aug-29 01:02N 42°21' W 071°03'0 0.0
2018-Aug-29 00:59N 42°21' W 071°03'0 0.0
2018-Aug-29 00:28N 42°21' W 071°03'0 0.0
2018-Aug-29 00:01N 42°21' W 071°03'0 0.1
2018-Aug-28 23:58N 42°21' W 071°03'0 0.0
2018-Aug-28 23:28N 42°21' W 071°03'0 0.0
2018-Aug-28 23:01N 42°21' W 071°03'0 0.0
2018-Aug-28 22:59N 42°21' W 071°03'0 0.0
2018-Aug-28 22:28N 42°21' W 071°03'0 0.0
2018-Aug-28 22:01N 42°21' W 071°03'0 0.1
2018-Aug-28 21:59N 42°21' W 071°03'0 0.0
2018-Aug-28 21:28N 42°21' W 071°03'0 0.0
2018-Aug-28 21:01N 42°21' W 071°03'0 0.1
2018-Aug-28 20:58N 42°21' W 071°03'0 0.0
2018-Aug-28 20:29N 42°21' W 071°03'0 0.0
2018-Aug-28 20:01N 42°21' W 071°03'0 0.0
2018-Aug-28 19:58N 42°21' W 071°03'0 0.0
2018-Aug-28 19:28N 42°21' W 071°03'0 0.0
2018-Aug-28 19:01N 42°21' W 071°03'0 0.0
2018-Aug-28 18:56N 42°21' W 071°03'0 0.0
2018-Aug-28 18:29N 42°21' W 071°03'0 0.0
2018-Aug-28 18:03N 42°21' W 071°03'0 0.0
2018-Aug-28 18:01N 42°21' W 071°03'1 2.9
2018-Aug-28 17:31N 42°21' W 071°01'2 5.1
2018-Aug-28 17:03N 42°20' W 070°58'0 5.5
2018-Aug-28 17:00N 42°20' W 070°57'3 5.4
2018-Aug-28 16:30N 42°22' W 070°55'2 4.2
2018-Aug-28 16:04N 42°23' W 070°53'0 5.5
2018-Aug-28 16:00N 42°23' W 070°52'3 5.4
2018-Aug-28 15:31N 42°24' W 070°49'3 6.5
2018-Aug-28 15:03N 42°25' W 070°45'0 6.7
2018-Aug-28 15:00N 42°25' W 070°45'3 6.2
2018-Aug-28 14:30N 42°25' W 070°40'3 2.9
2018-Aug-28 13:30N 42°26' W 070°37'2 5.3
2018-Aug-28 13:03N 42°28' W 070°38'0 4.8
2018-Aug-28 13:00N 42°29' W 070°38'2 4.9
2018-Aug-28 12:30N 42°31' W 070°39'2 4.8
2018-Aug-28 12:03N 42°33' W 070°40'0 5.2
2018-Aug-28 12:00N 42°33' W 070°40'2 3.0
2018-Aug-28 11:30N 42°33' W 070°38'2 5.2
2018-Aug-28 11:03N 42°32' W 070°35'0 2.9
2018-Aug-28 11:01N 42°32' W 070°35'0 0.8
2018-Aug-28 10:30N 42°32' W 070°34'2 3.5
2018-Aug-28 10:03N 42°34' W 070°33'0 4.9
2018-Aug-28 10:00N 42°34' W 070°33'2 4.8
2018-Aug-28 09:30N 42°36' W 070°31'2 4.6
2018-Aug-28 09:03N 42°37' W 070°29'0 4.5
2018-Aug-28 09:00N 42°37' W 070°28'2 3.9
2018-Aug-28 08:30N 42°37' W 070°31'2 5.4
2018-Aug-28 08:03N 42°36' W 070°34'0 5.4
2018-Aug-28 07:59N 42°36' W 070°35'2 4.5
2018-Aug-28 07:30N 42°34' W 070°36'2 5.3
2018-Aug-28 07:03N 42°32' W 070°35'0 5.2
2018-Aug-28 07:00N 42°31' W 070°35'3 5.1
2018-Aug-28 06:30N 42°29' W 070°33'2 4.9
2018-Aug-28 06:03N 42°27' W 070°33'0 5.1
2018-Aug-28 06:00N 42°27' W 070°33'2 3.6
2018-Aug-28 05:30N 42°26' W 070°30'2 4.5
2018-Aug-28 05:03N 42°27' W 070°28'0 4.6
2018-Aug-28 05:00N 42°27' W 070°27'3 5.1
2018-Aug-28 04:30N 42°27' W 070°24'3 5.3
2018-Aug-28 04:02N 42°28' W 070°20'0 5.2
2018-Aug-28 04:00N 42°28' W 070°20'3 5.3
2018-Aug-28 03:30N 42°28' W 070°17'2 5.4
2018-Aug-28 03:03N 42°29' W 070°14'0 5.5
2018-Aug-28 03:00N 42°29' W 070°13'3 5.0
2018-Aug-28 02:30N 42°30' W 070°10'2 4.8
2018-Aug-28 02:03N 42°31' W 070°07'0 4.9
2018-Aug-28 02:01N 42°31' W 070°07'3 5.2
2018-Aug-28 01:30N 42°32' W 070°04'2 5.4
2018-Aug-28 01:03N 42°33' W 070°01'0 5.3
2018-Aug-28 01:00N 42°33' W 070°01'4 5.3
2018-Aug-28 00:14N 42°35' W 069°55'1 5.0
2018-Aug-28 00:00N 42°35' W 069°54'3 5.1
2018-Aug-27 23:27N 42°36' W 069°50'2 5.5
2018-Aug-27 23:03N 42°37' W 069°48'0 7.8
2018-Aug-27 23:00N 42°37' W 069°47'4 7.5
2018-Aug-27 22:29N 42°38' W 069°42'  

Dump ship's entire track history